Theta_e
333 336 334 337 339 340 342 342 341 340 340 341 341 341 341 337 338 337 340 340 339 336 336 336 335 335 336 336 336 335 333 337 339 338 341 341 341 341 343 343 344 343 343 343 342 340 341 342 344 343 343 340 339 337 339 339 340 339 340 340 338 335 335 337 334 335 332 330 332 330 330 333 335 335 333 334 336 337 335 334 336 336 334 336 337
333 334 335 337 337 342 342 341 340 337 337 338 339 340 340 340 338 338 338 339 338 338 336 336 337 337 336 335 334 338 335 337 334 335 340 340 342 341 344 341 343 343 342 342 342 341 340 341 342 343 342 341 339 339 341 339 339 340 338 336 339 336 334 335 337 334 329 327 325 328 329 333 334 334 333 332 333 334 336 336 336 334 333 334 336
330 332 335 335 339 340 340 340 338 339 337 337 339 340 339 339 338 339 338 338 337 336 336 336 338 339 339 338 336 336 337 340 338 340 334 338 340 341 342 342 341 340 341 341 342 340 341 339 341 342 342 341 338 338 339 339 340 339 338 336 335 336 335 337 336 336 327 329 330 325 321 323 327 329 332 333 333 334 333 332 332 333 330 332 333
328 331 333 335 336 339 339 338 338 338 337 337 338 338 338 338 338 338 339 340 337 336 336 338 339 339 338 337 336 336 331 336 333 335 337 340 335 340 341 342 342 339 340 339 340 340 341 340 340 341 341 341 338 338 338 337 339 338 338 337 336 332 332 332 337 335 333 328 320 323 323 322 317 323 326 329 333 331 331 331 331 331 332 329 330
327 330 331 333 336 337 339 339 338 337 337 336 337 338 337 338 338 338 337 338 338 337 336 338 338 335 338 336 334 333 331 333 335 336 336 335 337 341 340 342 342 339 340 339 337 340 340 341 339 340 340 340 338 334 336 338 338 338 339 337 335 333 330 333 332 337 334 335 326 324 322 319 319 321 326 326 329 329 328 330 330 329 329 329 327
327 329 327 330 332 338 338 339 338 338 337 337 336 340 339 338 338 337 337 337 337 337 337 338 335 334 333 330 327 329 329 332 331 335 334 334 334 340 338 341 340 340 340 340 338 340 340 341 340 340 341 340 340 337 336 337 337 336 338 338 336 336 332 330 332 335 333 332 334 333 330 321 322 324 323 317 330 329 328 328 329 330 331 327 325
329 330 329 331 333 334 337 338 338 337 336 338 339 337 338 338 336 335 335 338 338 337 338 337 334 335 334 332 332 331 331 332 335 336 337 337 338 339 338 340 340 342 341 341 341 341 341 340 341 341 340 341 340 338 336 336 335 335 337 337 336 336 336 331 331 329 335 333 335 334 332 333 329 324 321 321 319 324 327 326 327 327 324 322 321
322 328 330 331 329 336 336 337 338 338 338 337 336 333 333 333 334 335 335 336 336 336 337 337 335 334 335 336 335 333 334 333 335 337 337 330 331 334 337 339 338 338 338 339 341 342 343 342 341 340 339 339 337 338 337 336 336 335 337 337 335 335 336 331 333 336 331 330 335 334 334 334 333 329 328 324 319 318 320 325 327 327 323 322 321
320 324 331 327 329 336 338 338 339 337 337 335 334 332 334 331 332 333 335 337 339 336 335 338 337 338 336 335 335 335 337 335 333 333 331 331 330 331 335 336 337 338 338 337 337 338 339 340 339 339 339 339 336 338 338 337 336 336 335 339 335 335 335 338 336 334 332 330 329 329 331 329 332 331 330 326 323 319 318 320 323 327 324 322 322
324 330 326 326 329 336 338 338 337 336 336 336 331 333 328 329 328 330 332 337 336 337 337 337 338 335 335 336 333 334 334 332 334 331 331 331 329 331 336 335 335 337 337 337 338 337 337 339 340 340 340 341 337 336 338 336 337 337 336 338 337 338 337 336 336 336 335 336 329 329 329 328 326 328 328 325 325 323 318 319 322 321 317 319 322
325 327 329 328 331 336 337 336 336 336 336 333 330 331 331 330 328 327 328 333 332 332 333 333 333 334 334 335 333 332 331 331 328 328 328 330 328 333 335 335 336 336 337 338 338 336 338 337 338 342 342 341 337 337 338 336 337 337 338 339 337 338 335 335 335 336 336 335 335 332 328 327 327 325 325 326 325 321 319 320 321 321 319 317 319
330 329 331 333 335 336 336 335 334 334 332 332 332 332 334 330 328 326 330 333 333 334 333 333 334 334 334 334 334 333 331 329 327 325 327 328 332 333 334 335 335 336 337 337 338 337 338 337 338 338 338 338 337 340 339 338 338 338 337 337 335 336 337 335 336 335 335 333 335 334 331 331 331 329 326 327 327 326 326 320 319 320 318 318 317
329 330 331 332 333 334 333 334 334 331 331 334 334 333 333 331 329 326 329 332 333 333 333 333 331 330 332 332 334 333 332 331 328 328 329 332 333 333 334 333 334 334 335 335 337 337 337 337 337 336 336 338 337 339 340 338 338 337 337 337 337 336 337 334 335 337 336 334 334 334 333 327 329 330 331 329 328 329 326 321 319 320 316 313 314
328 330 330 330 332 332 332 332 332 332 333 335 333 332 332 332 331 328 332 334 335 331 333 334 333 332 334 334 336 334 335 333 329 330 333 332 334 334 334 333 333 334 334 334 336 337 336 337 337 336 336 336 336 338 339 339 339 338 337 336 336 336 336 335 333 336 336 336 337 334 332 331 334 332 331 330 329 327 324 321 320 319 316 311 310
324 328 328 329 332 332 331 332 332 333 334 333 332 334 334 333 333 334 334 335 335 334 333 333 333 333 335 335 335 334 336 332 331 331 333 334 335 335 334 332 333 333 332 333 335 336 336 337 337 337 336 336 336 337 338 340 339 337 337 338 335 336 335 337 335 334 333 333 333 333 332 329 331 330 331 329 329 328 325 324 320 316 315 311 308
323 324 327 328 329 329 332 332 333 333 333 332 333 334 335 334 335 334 334 334 334 332 331 333 334 335 335 335 335 334 334 333 332 332 334 335 335 334 334 334 333 333 335 335 334 335 335 335 336 335 335 336 336 336 337 337 339 337 335 336 336 334 334 335 336 333 333 334 333 335 333 331 331 330 330 330 328 329 328 326 322 318 312 307 309
324 324 324 326 327 330 330 331 332 333 332 333 334 334 335 335 334 334 334 334 334 333 333 333 335 334 335 336 335 335 333 332 332 332 336 337 336 335 334 334 335 335 334 335 335 335 335 335 334 333 334 335 336 335 335 335 337 337 335 335 335 335 335 334 334 333 334 333 334 333 333 332 332 333 329 330 329 329 329 327 322 319 316 310 307
324 324 325 325 327 329 330 332 332 331 331 332 334 336 336 335 335 335 334 333 334 334 334 335 335 335 335 336 337 336 335 334 333 333 335 336 335 335 335 334 334 335 334 335 335 335 335 333 333 333 335 334 335 335 333 334 336 336 336 336 335 337 335 334 334 334 334 337 334 333 333 331 333 332 330 332 330 330 329 325 323 320 318 313 311
323 324 325 325 326 328 329 329 328 330 332 333 334 334 334 335 335 335 333 335 335 335 335 334 335 335 334 337 338 337 336 334 332 332 335 333 333 334 334 334 334 334 334 334 334 332 332 332 332 331 332 332 333 333 333 333 333 334 335 335 334 335 334 333 335 335 333 335 334 334 333 333 333 332 330 330 331 329 327 325 323 322 319 323 314
322 323 325 325 326 327 327 328 328 329 329 331 333 334 334 334 334 334 334 334 336 335 335 334 334 335 335 336 337 337 334 330 331 330 331 331 331 333 333 333 332 331 331 331 329 329 329 329 331 330 330 332 331 332 333 332 333 333 335 334 333 335 333 331 334 334 333 333 332 331 332 332 332 330 330 330 330 331 328 324 323 322 318 319 316
318 320 322 325 326 327 328 328 328 328 329 331 333 333 333 333 333 334 334 334 334 336 335 332 334 335 335 335 336 336 334 333 331 329 329 330 332 331 331 332 331 331 331 330 330 330 330 331 331 330 330 331 331 331 332 332 332 332 336 335 335 334 330 331 332 333 334 333 333 332 329 331 332 330 330 331 327 327 327 324 323 320 318 318 316
318 320 321 323 327 327 328 328 328 328 329 330 332 332 331 332 334 335 335 334 334 334 333 333 334 334 335 337 336 335 333 330 331 329 331 330 330 331 333 332 331 331 331 329 330 330 330 330 329 328 329 328 329 329 330 331 330 333 333 333 334 331 329 328 331 329 329 332 333 330 329 331 330 330 328 324 323 324 323 321 319 319 317 316 318
316 318 318 319 322 324 326 327 329 329 328 329 331 331 332 332 333 334 334 333 333 333 333 332 334 335 335 334 332 331 331 332 328 330 330 330 331 332 332 331 330 330 330 329 329 330 329 328 328 327 327 328 328 328 330 329 330 333 332 334 334 330 329 327 328 328 327 331 332 330 329 329 330 330 329 326 325 323 321 319 319 317 316 316 317
314 314 315 316 319 318 318 321 323 326 328 328 330 331 332 333 332 329 327 331 333 332 332 332 333 333 332 329 328 330 329 332 329 329 330 331 331 332 332 331 330 329 328 329 330 328 327 328 327 326 326 327 327 328 329 329 328 330 332 329 331 329 328 327 327 326 325 327 331 329 329 330 331 329 328 325 323 323 321 319 318 319 317 314 320
313 313 314 316 316 316 315 315 318 319 320 324 328 329 329 332 327 327 328 329 329 329 329 330 330 329 328 328 328 330 330 329 329 329 331 331 331 331 331 328 328 327 328 329 327 328 326 327 328 325 325 326 327 328 328 328 330 330 329 328 329 327 327 327 326 325 327 325 328 329 329 330 331 329 330 324 322 323 320 320 318 318 317 316 319
311 312 313 313 313 314 314 314 314 316 318 319 321 325 326 325 324 328 326 326 326 328 328 328 329 327 327 327 328 327 332 329 329 330 331 331 330 330 330 331 328 327 329 328 327 327 325 325 325 325 325 325 325 326 326 327 327 328 329 329 327 326 326 325 325 324 324 325 325 326 328 331 332 331 329 325 324 323 320 320 319 318 317 318 320
309 309 311 311 311 310 311 312 312 313 316 316 318 322 324 325 325 325 326 327 326 328 328 328 326 326 324 326 327 327 333 331 330 330 331 330 330 330 329 328 328 329 328 327 326 326 326 326 327 326 324 323 324 324 325 325 326 326 326 325 326 325 325 325 325 323 323 324 324 324 325 326 330 330 329 326 325 324 323 322 321 321 318 319 318
308 307 307 307 308 308 309 309 310 310 310 312 315 320 323 324 323 324 325 328 328 328 327 327 328 327 327 329 330 332 333 332 329 330 329 329 327 329 327 330 329 328 327 325 325 325 326 327 328 326 324 324 323 323 323 324 325 325 325 325 324 325 324 324 325 323 323 323 324 325 324 325 325 326 329 329 331 324 323 323 323 323 321 321 318
305 305 305 306 305 306 307 306 307 308 308 309 310 312 315 320 325 324 325 326 328 328 328 328 328 328 329 330 332 331 332 332 328 328 327 326 327 326 330 330 330 329 327 326 326 326 325 325 325 325 323 323 323 321 314 314 321 321 323 323 324 323 324 323 323 323 324 323 324 325 324 327 325 317 310 314 317 318 330 325 324 324 323 322 322
301 302 303 304 304 305 306 305 305 305 306 307 307 308 311 313 316 322 326 327 328 328 327 328 328 327 327 327 327 327 328 330 330 328 326 327 326 328 329 329 329 327 325 325 324 323 322 322 321 322 323 325 321 317 302 296 300 314 323 321 324 324 323 323 323 323 323 324 324 324 328 316 314 312 309 304 304 305 307 319 326 326 324 323 321
301 301 302 303 304 304 304 304 303 303 303 305 305 306 309 311 314 318 321 325 327 326 325 325 325 326 326 325 324 325 327 327 329 329 328 327 327 328 328 327 327 326 324 323 322 320 320 320 321 322 324 322 318 307 294 292 294 295 314 327 322 322 323 322 323 323 322 323 324 323 326 322 322 318 322 301 301 301 300 299 299 301 307 328 326
300 301 301 302 302 302 301 301 302 302 303 303 303 305 307 309 311 314 315 317 318 323 324 324 325 325 325 324 324 325 325 325 326 326 326 326 326 327 324 324 324 324 323 323 321 320 320 321 323 325 322 319 313 295 291 293 293 292 296 318 324 323 322 321 321 320 322 322 322 323 323 322 322 328 321 321 314 303 301 300 299 298 297 296 301
299 299 300 300 301 301 301 301 301 301 302 303 304 304 305 309 311 313 315 313 314 315 314 314 317 321 321 320 320 320 320 320 321 322 323 322 322 323 323 324 325 325 324 321 322 323 323 325 324 320 318 316 312 292 292 292 292 292 289 301 321 323 321 320 320 319 319 320 321 321 322 323 319 320 322 324 322 323 301 292 297 299 300 299 298
299 299 300 300 300 301 301 301 302 302 303 304 304 304 305 308 310 312 312 312 313 312 311 310 312 313 314 315 315 315 314 314 316 318 319 319 320 319 321 322 324 324 324 323 323 323 322 321 318 317 314 311 307 295 292 292 292 292 291 297 321 322 321 321 320 320 321 323 323 323 322 322 323 323 323 326 321 322 326 323 326 324 321 318 300
298 299 300 300 300 300 300 301 301 302 303 304 303 304 305 306 307 308 309 309 309 310 310 309 309 310 311 311 312 312 312 312 311 312 314 315 315 315 315 317 320 323 324 321 320 318 316 315 314 312 310 307 303 291 291 291 291 292 290 297 325 323 320 321 322 322 322 323 323 323 323 322 323 323 315 316 321 322 323 324 324 324 322 321 322
297 297 298 299 299 299 300 301 303 302 301 302 302 304 303 303 305 305 305 306 306 306 306 306 306 307 308 309 309 309 310 310 309 309 308 309 310 310 311 312 314 315 317 319 320 318 316 314 312 310 308 306 303 291 291 291 291 291 292 320 323 322 321 321 321 322 321 322 322 323 322 321 323 320 301 293 298 317 321 321 321 322 322 323 324
298 298 298 299 299 299 301 302 302 302 302 301 302 303 303 302 302 302 303 304 304 304 304 304 305 305 307 308 308 307 307 307 308 308 307 308 307 307 309 311 311 312 312 313 313 315 314 313 311 310 308 306 302 294 290 291 292 290 300 320 322 321 322 322 323 323 323 323 326 326 327 325 326 313 293 291 292 300 322 320 319 319 320 322 322
298 298 299 300 300 301 301 300 300 301 302 303 303 302 302 301 301 301 301 301 301 302 303 304 304 305 306 307 307 307 307 307 307 306 306 307 308 309 309 311 310 309 309 308 308 308 309 311 311 309 308 305 302 295 291 291 292 291 297 317 320 320 321 322 323 323 324 324 316 308 319 324 318 307 291 292 291 307 322 322 322 321 320 319 320
297 298 297 297 298 299 300 300 298 298 300 302 303 302 300 298 299 300 300 300 300 300 300 301 302 303 304 305 306 307 307 306 306 306 307 307 308 308 307 307 307 308 307 307 305 305 305 306 307 307 308 307 305 299 291 291 291 292 299 310 316 318 319 320 320 321 322 321 313 304 299 302 303 297 290 291 291 300 317 320 322 323 321 322 323
297 298 298 298 298 298 297 298 297 297 299 300 301 300 300 299 298 299 300 300 300 301 302 302 303 304 304 304 303 302 303 303 303 304 305 306 307 306 307 307 307 306 306 308 307 307 306 305 306 307 307 308 305 299 294 291 291 292 291 305 314 312 312 314 315 315 316 318 316 307 299 291 290 290 290 290 291 291 305 311 313 315 317 319 314
296 297 297 297 297 297 296 297 298 299 298 299 299 299 298 298 299 298 297 299 302 303 303 302 302 302 301 302 302 302 302 302 303 303 303 304 304 304 306 307 307 306 307 307 307 306 305 306 305 306 305 304 303 304 297 290 291 291 291 295 311 308 306 306 307 309 311 311 314 314 306 291 289 290 290 290 291 290 291 304 309 310 313 304 301
296 297 298 298 297 297 297 297 298 299 299 299 299 298 297 297 297 297 297 298 299 300 300 301 300 300 301 301 301 302 303 303 304 305 304 304 304 305 306 306 306 306 306 305 305 306 306 305 305 305 306 305 301 301 303 292 290 291 291 291 303 303 299 303 304 305 306 308 308 310 308 295 290 291 290 290 290 291 290 300 306 297 293 293 304
295 295 296 296 296 297 297 298 297 298 299 299 299 298 298 298 297 298 299 299 299 300 299 299 300 300 300 300 301 303 303 304 303 304 304 304 304 305 306 307 306 306 306 306 306 307 306 306 306 306 306 306 304 301 296 298 290 290 290 291 290 296 291 306 305 304 304 305 306 308 305 293 291 291 291 290 290 289 291 300 294 292 292 290 294
296 296 296 296 296 297 296 297 298 298 298 298 298 297 298 298 298 301 301 302 302 302 301 300 300 300 301 301 301 301 302 303 304 304 303 303 304 304 304 305 306 306 306 305 304 305 305 306 306 304 305 305 306 302 296 295 295 290 290 289 289 288 289 299 300 301 301 303 303 304 299 291 291 291 291 291 290 290 294 292 290 290 290 292 303
295 296 296 296 296 296 297 298 298 298 298 298 298 297 297 298 300 302 301 301 301 301 301 301 301 301 301 301 302 302 302 302 303 303 303 302 303 305 304 304 305 305 305 304 304 305 305 305 304 304 304 304 305 303 301 296 292 290 290 289 290 289 291 288 301 303 304 305 296 292 292 292 292 291 290 290 292 292 291 290 290 289 291 301 304
297 297 297 297 297 297 297 297 298 299 299 299 299 298 297 298 300 301 301 302 302 301 301 301 301 300 300 301 302 302 302 303 303 302 302 303 303 303 304 304 304 304 305 304 302 302 302 304 304 304 303 304 305 306 306 304 297 294 293 289 289 289 290 290 293 299 292 288 289 291 291 290 291 293 297 300 302 304 295 293 292 292 301 303 303
298 298 298 298 298 297 297 297 297 298 298 299 299 299 300 300 300 301 301 302 302 301 300 300 301 301 302 301 300 300 302 302 303 303 303 303 303 304 304 303 304 304 305 303 303 302 302 301 301 302 302 302 304 304 302 301 301 301 302 301 300 299 292 291 296 302 298 302 303 298 300 295 295 294 294 293 295 296 300 303 306 306 306 307 308
298 299 299 299 298 297 297 297 297 298 298 299 299 299 300 301 301 301 302 302 301 301 301 301 301 301 301 302 302 295 299 303 302 301 300 301 303 304 302 299 299 300 301 303 304 302 302 303 303 303 304 304 304 300 299 298 299 299 300 301 302 302 304 303 303 301 301 301 302 297 298 302 303 304 303 304 304 304 304 303 308 307 307 306 304
297 298 298 298 298 297 297 297 298 299 299 300 300 300 300 301 301 301 302 301 300 299 300 300 300 300 301 301 302 302 301 302 303 302 299 299 299 300 301 301 298 297 296 297 300 300 299 301 303 302 302 303 303 299 297 291 294 289 291 297 299 299 299 300 295 289 296 300 301 303 302 303 304 300 300 304 304 304 303 305 306 306 305 305 305
298 299 298 298 298 298 297 297 298 299 300 299 300 300 301 301 301 301 301 300 300 300 300 300 299 298 298 300 301 300 301 301 301 302 300 297 289 289 295 299 298 290 287 288 290 295 296 298 300 301 301 299 298 297 288 288 289 289 288 287 288 288 288 292 291 288 290 296 297 300 301 300 298 301 299 299 298 300 298 299 299 298 299 303 303
297 297 298 298 297 297 297 297 298 299 299 299 299 300 300 301 301 301 301 301 300 299 299 299 299 298 296 298 299 299 300 300 301 300 302 298 299 295 287 288 291 290 290 288 288 287 287 288 293 298 296 288 289 288 288 288 288 288 288 288 288 288 288 288 287 290 294 297 298 298 297 299 299 300 298 299 297 299 298 299 299 300 301 300 300
Wind_Speed
9 9 12 11 12 11 10 10 11 12 11 11 11 10 12 13 12 13 12 12 9 10 9 8 9 6 5 4 7 7 8 7 4 4 5 6 9 9 8 5 6 7 7 6 6 5 5 5 5 5 5 5 5 5 5 6 7 7 6 6 6 6 6 6 6 6 7 6 5 8 7 4 7 6 6 4 1 4 4 4 3 3 5 3 6
10 9 12 14 12 11 9 9 12 13 12 13 13 12 12 12 14 13 12 12 11 10 9 8 7 7 6 6 7 6 6 4 4 5 6 4 1 6 6 5 7 6 6 6 5 6 5 5 5 5 5 4 5 5 5 6 7 6 6 6 5 6 6 6 6 7 7 7 8 6 6 5 4 5 4 5 4 3 3 4 5 5 6 7 8
12 12 12 10 10 12 9 9 12 13 13 14 13 13 12 11 12 11 11 12 11 11 9 9 9 8 5 5 7 6 3 3 2 5 5 3 4 4 6 6 7 6 6 6 5 6 5 6 5 4 5 5 5 6 6 6 6 7 7 6 7 6 6 6 7 5 6 6 6 7 7 7 5 4 3 4 3 4 4 4 5 5 7 5 5
14 14 12 12 14 12 12 11 12 13 13 14 14 13 11 10 11 11 11 12 13 13 10 9 10 7 3 2 6 4 3 2 3 2 2 3 2 5 6 5 6 6 8 7 6 6 5 6 5 5 5 5 5 6 6 7 7 7 7 7 7 8 7 8 7 6 3 8 7 5 6 5 6 5 5 4 5 5 6 5 3 4 5 8 5
14 13 10 9 10 13 13 12 12 13 14 14 12 13 9 12 12 13 12 13 13 13 11 10 9 9 6 2 6 6 3 5 3 2 4 2 5 6 5 6 6 6 6 7 5 6 6 5 6 5 6 6 5 7 8 7 8 7 7 6 8 6 8 5 8 5 2 4 2 4 4 3 3 6 7 5 3 5 6 6 4 6 4 5 6
13 14 15 15 15 13 13 13 13 13 13 12 13 12 12 12 12 9 9 12 13 15 14 9 9 9 8 9 7 8 6 7 8 8 7 4 4 4 5 5 7 6 7 7 8 7 7 7 7 7 7 6 5 6 7 7 7 7 8 7 7 6 7 8 5 5 5 3 0 3 1 0 6 7 6 5 1 4 4 6 6 5 3 4 5
11 9 9 10 11 13 15 14 15 15 13 12 11 12 11 10 8 8 7 10 11 13 11 8 10 10 11 11 10 10 9 7 6 5 4 3 2 4 5 7 7 7 7 6 7 7 8 8 7 7 7 6 6 6 6 7 7 7 7 7 7 6 5 6 9 8 7 7 5 4 3 2 6 8 5 7 7 3 5 4 4 5 4 6 6
12 15 11 11 11 14 15 16 13 12 13 12 10 5 6 4 5 6 9 9 12 10 12 10 13 12 9 9 8 8 7 8 8 5 3 3 2 5 6 6 7 7 7 7 6 6 6 6 7 6 7 7 7 6 6 6 6 5 7 5 6 6 5 5 6 5 4 5 5 5 5 5 4 5 5 4 7 6 6 5 5 5 5 6 6
11 10 12 11 11 12 13 13 12 11 11 12 11 9 8 4 4 7 7 10 8 12 12 11 10 9 8 8 6 5 5 6 5 4 2 3 3 7 9 7 7 6 6 7 9 9 8 7 9 8 8 7 7 6 5 7 7 6 6 6 6 5 5 4 2 5 7 3 7 4 4 6 7 4 5 1 5 7 7 8 7 5 5 4 5
11 8 10 8 8 12 14 12 11 11 11 10 10 6 9 6 4 3 9 6 6 8 9 9 9 6 8 6 9 7 5 5 4 4 3 4 5 11 7 6 6 6 6 6 6 7 8 8 8 8 7 6 7 7 7 7 7 6 8 6 1 2 1 7 0 4 4 2 3 5 4 2 7 6 6 7 3 8 6 8 7 8 7 6 4
12 11 10 13 14 12 13 13 13 11 9 10 13 11 15 13 13 11 10 8 8 3 3 9 9 9 10 9 9 9 9 7 5 5 3 5 11 9 6 6 6 6 5 5 5 6 6 7 6 6 6 5 6 6 6 7 7 7 6 7 6 5 3 5 2 1 0 2 1 1 4 5 2 5 5 4 4 4 8 7 7 7 7 7 6
6 8 11 11 11 12 12 12 12 11 12 12 11 11 13 13 11 13 12 10 11 11 12 11 9 10 10 10 10 11 10 6 8 7 8 12 11 8 7 6 6 6 5 5 5 5 5 5 6 6 6 6 6 5 5 5 6 6 7 7 7 6 5 4 4 3 3 3 2 2 1 3 1 1 8 4 3 1 1 7 6 7 8 7 6
5 4 6 7 10 11 11 11 11 12 12 14 12 12 12 13 13 11 10 9 9 9 12 15 14 10 10 9 8 7 9 9 6 7 11 10 8 8 8 7 6 6 6 5 5 5 5 5 5 5 5 5 5 5 4 6 6 6 7 7 7 8 6 4 3 4 4 3 2 2 1 4 2 3 6 4 4 2 2 6 6 7 6 7 7
5 6 6 7 8 9 9 10 10 11 12 13 13 11 11 12 14 13 11 12 12 11 11 15 14 13 10 9 8 7 8 7 7 7 10 9 8 8 8 7 7 6 6 6 6 6 5 4 4 4 4 4 5 5 5 6 6 6 7 8 8 7 7 10 6 5 4 3 2 1 0 2 2 3 4 5 5 5 6 7 6 6 7 7 7
7 6 7 7 6 8 9 10 10 11 12 12 11 12 13 12 14 15 14 14 14 12 10 14 14 14 11 10 8 7 8 7 7 9 9 9 7 8 7 7 6 6 7 6 8 6 5 5 5 5 4 5 5 5 5 6 5 6 5 6 7 6 5 5 7 6 4 5 2 3 2 3 3 4 3 3 4 5 5 7 7 7 7 7 7
6 6 6 7 7 7 8 10 9 9 11 11 11 12 12 12 14 16 17 15 14 14 12 13 15 12 14 12 12 10 7 7 5 9 8 8 9 8 7 7 7 7 7 7 8 7 5 5 5 5 4 4 5 6 6 5 6 6 6 6 6 5 6 8 7 8 7 5 6 5 4 7 5 5 7 6 6 6 6 7 6 6 6 7 6
3 3 2 3 4 6 7 9 9 10 10 11 11 11 11 11 12 16 17 16 16 16 16 15 15 16 16 14 14 11 9 7 5 9 8 7 8 8 8 7 8 7 7 8 7 7 6 5 5 5 5 5 5 5 5 5 5 5 5 7 7 6 6 7 7 8 7 9 8 8 6 3 5 6 7 8 6 5 4 5 7 7 6 6 6
0 2 2 4 6 7 6 7 7 8 10 10 11 12 12 11 13 16 16 18 18 18 17 16 16 17 15 16 14 12 10 9 6 9 8 7 8 7 8 7 8 8 8 8 7 7 6 6 5 5 5 5 6 5 6 5 5 5 6 5 5 4 5 5 6 4 3 6 6 8 6 5 3 6 4 5 6 4 3 7 8 5 5 7 5
5 3 1 5 5 6 5 6 8 8 8 9 9 10 10 11 12 15 17 19 20 18 17 15 14 12 13 14 14 12 9 8 5 12 9 9 9 8 9 8 8 8 8 8 7 6 5 4 4 5 5 6 5 5 6 6 6 5 5 5 6 7 6 6 5 6 6 5 6 6 6 4 4 6 5 5 6 7 7 7 7 5 5 3 7
9 8 5 2 5 6 6 7 8 9 9 9 9 9 12 10 9 13 16 17 17 18 17 15 14 13 12 12 13 11 11 11 11 12 10 10 10 10 9 9 9 8 8 8 7 7 7 6 5 5 5 5 6 6 6 6 6 5 5 6 6 6 7 6 6 7 6 8 9 9 7 6 6 7 6 5 4 6 6 7 5 6 6 1 6
8 8 8 7 3 4 6 7 8 8 9 8 8 11 11 11 11 16 18 18 19 16 17 16 13 12 13 13 11 10 12 11 14 12 11 10 9 9 9 9 9 8 8 8 8 8 7 7 7 6 6 6 7 6 5 5 6 6 6 6 6 7 7 5 6 6 6 6 7 7 8 8 8 6 5 6 7 7 6 7 7 4 5 4 6
8 8 8 8 8 4 5 6 6 6 8 8 9 11 11 14 14 14 15 15 16 16 16 15 13 11 13 11 10 7 7 9 10 12 9 10 10 9 9 9 9 9 9 8 8 7 7 7 7 7 6 6 7 7 7 6 6 6 6 5 6 6 6 6 4 6 5 5 6 8 8 6 7 7 7 8 8 7 8 9 6 6 7 7 7
9 10 9 9 10 11 9 7 5 7 7 10 11 12 13 14 15 13 12 13 13 14 14 13 11 9 10 8 7 4 1 9 13 11 10 11 10 10 9 9 8 8 9 8 8 7 7 7 6 5 5 5 6 6 5 6 6 6 6 6 5 5 5 6 6 6 7 5 6 7 8 8 7 7 7 8 7 8 8 8 7 6 8 8 9
8 8 9 8 8 10 11 12 11 9 8 10 10 11 11 11 10 8 9 11 11 12 11 11 9 11 9 7 6 7 7 10 13 11 12 11 11 10 9 9 8 8 9 8 8 8 6 6 6 6 5 4 5 3 4 5 6 5 5 6 5 5 5 5 5 5 6 7 6 6 7 8 7 7 8 8 8 8 8 7 7 6 7 8 6
8 9 8 9 10 11 10 9 10 9 11 11 8 8 7 5 1 2 6 7 8 9 12 12 11 10 9 9 7 7 14 14 14 12 13 13 11 10 8 9 8 8 9 8 8 8 7 7 6 6 5 5 4 4 4 4 3 3 4 5 4 4 5 5 5 8 7 7 6 5 5 8 7 9 7 9 8 9 9 6 7 7 6 7 3
10 10 10 11 10 9 10 10 10 10 10 9 9 8 6 4 8 3 7 7 8 6 9 12 11 10 7 7 7 7 11 13 13 12 13 12 11 10 9 7 8 9 8 8 9 7 7 8 7 6 5 5 5 4 5 5 4 4 4 4 6 5 5 6 7 6 5 6 6 8 7 3 7 5 6 8 7 9 7 7 9 8 7 7 6
11 11 10 10 11 12 12 12 11 12 11 9 8 6 6 3 7 7 6 7 8 7 9 11 14 14 10 12 12 11 5 10 11 11 10 10 9 10 8 9 8 9 8 8 8 8 7 7 7 6 6 5 5 5 3 3 5 5 3 5 4 4 5 5 5 6 7 5 6 5 7 9 8 7 7 8 7 7 6 6 7 7 9 10 8
11 11 12 12 11 12 13 13 14 12 11 11 10 10 6 7 8 9 6 6 10 12 11 12 15 15 15 14 10 10 7 8 10 11 11 9 10 8 11 9 9 8 8 8 8 7 6 6 6 6 5 5 4 4 2 3 4 5 5 4 3 4 4 5 6 6 4 4 4 5 4 5 7 8 8 8 7 7 6 6 5 5 7 5 8
12 12 12 12 13 12 13 14 14 14 14 13 12 12 12 9 7 11 9 9 10 15 14 13 14 14 13 11 9 7 7 8 10 12 11 11 9 11 9 9 8 8 6 7 7 6 6 5 5 3 1 2 4 9 7 7 8 1 6 4 5 4 4 5 4 3 4 5 4 4 3 4 9 8 11 7 6 6 3 7 6 5 6 5 5
12 12 12 12 12 12 13 14 14 15 15 14 12 12 11 10 10 2 12 9 10 13 14 12 12 12 11 11 10 8 7 7 9 9 10 10 10 8 8 8 8 7 7 6 6 6 5 5 6 5 5 5 7 5 7 9 6 6 5 5 5 5 5 5 6 6 6 5 5 4 6 8 9 9 9 9 8 8 9 6 4 4 6 7 6
12 12 12 12 13 13 14 15 16 16 16 14 13 10 10 11 8 9 8 3 12 14 14 13 12 12 12 11 10 9 8 8 8 8 9 9 9 8 6 7 7 7 7 7 6 6 6 6 6 6 6 7 5 5 11 10 11 11 7 7 5 3 4 6 6 6 6 5 5 5 5 6 5 3 2 4 4 5 7 8 7 5 4 3 5
13 13 13 13 13 15 16 17 16 15 15 14 13 10 10 8 7 10 9 9 11 9 11 12 13 14 13 13 11 10 9 8 8 9 10 10 10 9 6 5 6 6 6 6 6 7 6 6 6 8 7 6 5 8 9 9 9 8 6 6 3 4 3 3 4 5 5 5 6 6 5 4 5 4 3 6 4 2 3 4 5 8 9 5 4
13 13 14 13 13 14 15 15 14 13 14 15 13 11 10 9 9 9 10 12 11 12 13 13 13 12 13 12 10 10 9 9 8 8 8 9 10 10 9 9 8 5 4 4 5 6 7 7 6 7 7 6 6 9 8 7 6 6 6 5 5 5 3 4 3 4 5 6 6 5 5 4 4 6 3 4 5 6 5 2 1 4 4 6 11
13 13 13 13 13 13 14 15 14 11 11 11 12 10 8 8 8 9 11 11 12 12 13 13 12 12 11 11 11 11 10 8 7 8 9 9 10 9 8 7 7 8 9 8 8 7 7 6 6 7 7 7 7 10 11 8 6 6 5 5 6 3 2 3 3 3 2 2 2 2 4 5 3 4 4 5 4 4 5 5 4 4 5 6 7
13 14 14 15 14 15 16 15 13 12 10 8 10 10 8 9 10 11 10 12 12 13 14 14 13 12 12 12 12 12 10 9 8 8 9 9 8 7 8 5 5 6 6 7 7 7 6 6 7 7 7 7 5 10 11 11 10 9 8 7 3 0 3 3 2 1 1 1 2 3 3 2 4 2 8 8 2 3 4 4 5 6 6 7 7
11 12 13 14 15 15 15 13 10 11 11 11 10 9 10 11 11 13 13 14 14 15 15 14 15 13 12 12 12 12 11 10 9 8 10 9 8 7 7 6 7 6 7 6 6 7 7 6 6 7 7 7 6 12 12 12 12 12 11 5 3 3 4 3 4 2 4 4 4 3 3 5 3 8 9 12 9 6 4 6 6 7 7 8 8
11 12 12 11 12 13 13 12 12 11 11 10 9 9 9 11 13 12 13 13 15 16 14 13 14 13 12 11 9 10 10 10 9 9 8 8 8 8 7 5 6 6 6 6 4 5 6 6 6 6 6 6 6 10 12 13 13 14 9 5 4 4 4 3 2 2 3 1 3 4 4 2 8 7 9 12 13 10 4 6 8 9 8 8 8
10 10 11 11 11 12 13 13 13 12 11 9 9 9 10 12 12 12 12 12 14 13 12 12 11 10 9 9 10 10 10 8 9 9 8 7 7 6 6 5 5 5 6 6 5 5 6 5 5 5 5 6 6 9 12 13 14 15 12 7 3 3 2 2 3 3 3 4 8 13 10 7 8 7 10 12 13 9 5 6 8 8 9 10 9
10 10 11 11 12 13 13 14 14 15 14 11 11 11 11 12 13 12 13 13 12 12 11 11 10 9 9 9 9 10 10 9 8 8 7 6 6 5 6 6 5 6 6 6 5 5 6 6 6 5 5 6 6 8 12 12 14 14 11 7 6 2 2 1 2 2 2 5 7 10 14 12 9 7 11 11 12 10 4 6 7 8 8 9 6
10 10 10 11 12 13 14 15 15 14 13 13 11 11 12 11 12 11 12 12 11 10 9 9 8 7 7 7 8 9 9 9 8 7 7 6 5 5 5 5 5 5 5 4 4 4 5 5 4 4 6 6 6 6 8 11 12 13 14 9 5 6 5 4 2 4 2 1 9 8 10 12 11 11 10 10 10 9 6 6 7 6 7 6 8
11 10 10 10 11 12 12 12 11 12 12 12 11 11 12 12 11 12 12 10 8 7 6 6 7 8 10 10 9 9 9 8 7 7 6 6 6 5 5 5 5 4 4 4 4 4 4 3 2 3 4 5 5 5 7 10 11 12 14 12 5 7 7 6 6 5 4 4 1 9 6 7 7 7 7 7 5 5 5 5 5 6 6 7 9
11 11 10 10 11 12 13 13 12 12 11 10 10 11 11 10 10 11 9 8 8 8 8 8 8 9 9 8 8 7 7 6 7 6 5 5 5 4 4 4 3 4 4 3 2 3 3 3 3 3 3 4 6 8 5 7 8 10 11 13 7 7 7 6 6 4 6 4 6 5 5 6 8 9 8 7 6 5 5 4 5 7 10 10 7
10 11 11 10 10 12 12 11 10 11 10 9 10 10 10 9 11 10 8 7 7 7 8 8 8 8 9 9 8 8 7 6 6 6 4 4 4 4 3 3 3 4 4 4 4 4 4 4 3 2 3 4 5 6 6 6 6 7 7 8 8 6 9 6 4 4 5 4 5 7 6 12 11 11 10 11 10 9 7 6 9 9 9 8 6
9 9 9 10 10 11 11 11 9 8 9 9 9 9 9 9 10 7 6 6 6 7 7 7 7 7 7 7 7 8 7 6 6 5 5 4 3 3 3 2 1 2 3 3 3 2 3 3 3 3 2 3 4 6 5 7 5 3 3 2 3 2 4 3 3 2 4 4 4 4 6 10 10 11 11 10 10 9 8 11 12 12 11 8 5
6 6 7 8 9 10 10 9 9 9 8 8 8 9 9 10 8 8 8 8 8 7 7 7 8 7 6 7 7 6 6 5 5 4 4 3 2 1 2 1 1 1 2 3 2 2 2 2 3 4 4 4 4 7 5 5 6 6 5 3 1 1 3 2 3 2 3 4 6 6 7 7 8 9 11 11 9 10 13 12 12 12 7 4 5
5 5 6 7 7 7 9 9 9 10 9 8 8 8 9 8 8 8 7 7 7 8 8 8 7 7 7 7 5 6 6 5 4 4 4 3 2 2 2 2 2 2 2 2 2 1 2 2 2 2 3 3 4 5 6 5 5 6 5 7 6 7 6 8 7 6 7 6 6 5 8 11 11 10 8 6 6 6 9 12 13 10 5 7 8
6 4 4 6 6 7 8 8 9 8 8 8 9 9 8 7 7 7 8 8 8 7 7 7 7 6 6 7 8 6 4 5 5 5 5 4 4 4 4 5 5 3 2 2 2 2 3 3 2 2 2 3 4 6 7 7 8 6 5 1 5 6 9 8 6 5 6 5 5 6 6 9 10 12 12 12 12 11 10 9 8 8 8 7 7
7 7 6 6 7 8 8 8 7 7 6 6 6 7 7 7 7 8 8 8 8 8 7 7 7 7 6 6 6 3 4 5 5 6 6 6 6 6 6 7 7 7 6 6 5 5 5 5 4 3 2 1 5 9 8 7 7 7 6 6 6 6 6 6 6 8 8 9 9 8 10 10 9 9 9 8 9 9 10 9 8 5 5 7 9
5 5 7 8 8 8 8 7 7 6 7 7 7 7 7 6 6 6 6 7 7 7 8 9 8 8 7 6 6 6 5 4 5 6 7 8 7 7 6 7 9 7 7 6 6 6 6 6 5 6 5 5 4 8 7 5 5 4 3 6 7 6 6 6 6 7 8 9 7 7 6 5 5 3 3 5 6 6 5 7 8 6 7 8 8
4 4 5 5 6 6 7 7 7 7 6 6 7 6 7 7 6 6 6 5 4 4 5 6 7 7 7 6 6 6 5 5 4 3 7 6 6 7 7 5 6 7 8 8 8 6 6 6 5 6 7 6 6 5 5 7 6 4 3 4 6 7 7 6 8 11 7 5 4 3 3 2 3 3 4 4 4 4 4 4 4 6 6 8 8
3 2 3 4 5 4 4 6 5 6 6 7 7 7 6 6 7 6 6 6 7 5 5 5 5 5 5 6 5 5 5 5 4 4 2 5 7 4 6 9 9 7 7 8 8 7 7 8 6 5 8 12 11 8 9 6 5 4 2 3 5 6 8 8 7 5 4 4 3 3 4 4 3 5 3 4 4 4 4 4 4 5 7 8 6
Wind_Direction
199 198 171 208 188 192 188 171 169 171 165 153 145 160 168 169 166 168 167 165 161 168 169 169 166 172 184 179 200 206 185 185 186 169 182 178 178 154 180 167 160 171 171 178 173 184 164 156 164 170 169 167 162 163 187 151 164 166 155 168 156 160 148 148 155 144 142 128 121 121 122 149 128 143 148 143 122 193 166 137 144 146 125 105 86
197 199 204 181 198 178 177 178 173 183 177 168 153 175 183 180 178 167 175 167 171 172 174 168 176 171 171 189 184 201 181 161 156 260 209 131 337 161 131 191 163 164 181 170 182 177 166 159 178 182 174 167 159 159 172 149 168 165 167 161 169 162 154 149 133 148 158 151 148 144 124 112 121 124 146 145 148 134 118 135 159 140 150 166 171
189 198 194 196 187 180 175 192 185 185 178 171 157 180 186 179 185 174 174 169 175 178 175 180 170 174 181 202 191 181 87 34 55 32 343 276 166 232 151 178 166 166 181 164 168 188 168 162 180 183 192 158 161 161 167 170 174 171 175 174 161 170 154 155 154 174 160 154 152 149 140 140 134 138 115 108 138 129 168 145 112 193 141 147 143
189 196 188 197 192 184 183 190 190 191 185 174 165 182 181 184 183 182 181 182 180 181 183 177 165 131 146 271 35 54 131 68 345 61 337 172 210 225 161 169 174 184 185 167 194 179 173 166 175 187 194 167 181 154 179 179 178 181 179 176 177 161 173 156 165 166 252 159 165 172 147 149 139 142 143 141 152 159 154 120 135 124 121 133 124
183 191 193 205 195 187 182 185 185 194 187 179 163 175 189 190 188 190 192 191 190 183 183 172 161 148 149 149 105 112 136 117 171 146 157 290 232 197 171 173 188 190 182 183 178 184 182 177 175 187 189 173 187 171 186 186 184 185 179 179 189 177 160 162 166 158 255 11 262 136 137 194 129 136 143 132 164 160 123 110 109 124 148 118 102
176 187 186 194 194 190 181 184 182 185 186 181 164 175 182 185 183 180 196 196 195 188 184 163 151 154 158 169 158 155 161 164 176 172 177 180 204 196 175 187 181 183 180 176 177 196 182 183 176 185 183 179 189 193 185 187 190 189 182 187 187 190 174 169 158 159 149 195 31 47 360 124 150 151 165 136 195 110 124 122 129 122 115 124 129
157 182 182 200 186 195 185 188 185 181 176 168 153 182 178 168 167 167 212 205 192 188 169 153 161 167 170 180 171 163 170 173 171 175 167 186 235 191 200 181 188 175 174 181 181 178 173 189 177 187 181 186 186 198 187 187 196 196 180 189 193 188 181 169 174 174 160 180 129 197 191 131 157 161 147 129 134 140 102 102 118 115 96 113 111
188 162 186 186 209 195 193 193 185 180 169 168 173 148 163 139 175 183 205 211 200 189 175 180 169 172 170 179 160 164 170 162 165 170 105 64 41 316 217 185 183 179 176 163 189 157 173 167 186 189 190 185 193 194 187 193 194 206 177 188 206 181 187 206 160 182 166 158 170 187 195 157 184 116 154 147 145 138 142 132 104 84 78 62 79
188 159 163 172 210 189 191 193 183 168 170 176 144 172 145 130 213 232 230 211 185 190 188 181 163 157 160 164 129 149 153 134 129 138 132 128 137 232 226 181 174 172 174 172 176 170 172 180 188 191 191 190 196 188 192 195 181 189 168 214 198 179 185 38 228 181 156 211 178 178 231 152 193 151 157 208 176 144 154 151 143 126 113 103 85
136 151 179 183 213 191 190 183 165 168 170 157 112 162 140 155 262 254 249 223 164 181 191 159 114 135 155 138 154 148 126 127 150 156 156 180 177 222 201 179 161 161 167 172 181 177 179 181 187 185 193 194 199 192 186 184 197 177 176 188 105 200 243 119 342 22 85 261 199 162 225 133 173 135 178 182 175 214 165 157 158 156 146 131 131
165 154 197 179 195 195 177 167 160 167 162 131 170 179 154 159 178 185 208 222 135 160 208 124 164 174 161 151 158 150 157 159 152 125 155 200 211 194 187 168 163 156 157 163 179 178 181 181 179 195 192 193 199 206 185 185 192 188 182 174 178 188 205 97 84 145 356 169 80 281 194 223 130 187 151 184 189 177 149 162 163 163 137 136 161
82 146 171 168 156 167 169 169 163 153 143 165 178 176 160 168 177 191 189 175 157 169 161 149 156 164 164 156 161 164 156 163 160 162 190 209 194 181 175 168 162 155 159 158 171 179 177 184 185 187 188 191 195 207 190 190 190 194 190 193 177 202 148 169 148 176 199 189 238 224 342 329 114 110 98 206 136 185 229 152 165 148 157 147 138
162 172 168 175 169 164 170 160 152 144 169 184 175 178 171 164 181 189 187 167 162 169 162 155 151 150 168 163 164 159 157 163 168 181 204 198 180 177 171 172 163 160 163 159 155 170 179 177 186 193 185 191 194 197 196 206 186 197 196 194 198 191 150 160 170 185 173 207 215 222 99 229 165 153 129 176 177 134 259 163 164 177 139 131 144
166 155 166 191 177 169 155 153 162 167 188 195 177 179 181 170 178 186 177 167 159 168 168 151 149 160 165 161 161 162 156 168 162 215 211 191 175 170 173 170 163 163 156 159 158 169 185 172 179 187 189 191 192 189 202 202 199 202 196 196 198 191 180 151 194 195 192 209 246 298 73 288 101 123 161 166 159 175 196 177 167 153 141 150 147
168 173 192 196 193 174 156 160 177 180 197 192 185 181 184 173 178 179 169 163 160 153 160 164 160 162 167 155 162 163 164 170 181 215 207 180 168 168 177 172 169 167 164 157 159 171 169 174 171 176 184 183 189 186 188 201 200 212 201 202 196 181 180 142 166 191 177 198 205 230 134 260 217 148 193 178 191 190 206 159 177 161 163 150 161
145 191 195 200 200 201 175 180 190 194 189 188 187 187 183 180 181 168 161 159 160 159 171 168 159 164 161 162 167 171 182 165 187 220 192 179 171 172 179 171 164 164 163 157 159 169 168 172 177 173 180 180 189 193 194 196 198 199 190 200 202 180 189 176 167 174 181 192 202 211 211 204 204 186 194 185 183 206 202 148 176 180 162 156 164
170 182 220 245 229 227 211 198 191 188 194 195 196 190 188 178 175 164 162 164 159 166 168 169 165 165 163 170 173 176 177 157 182 229 178 183 165 173 172 169 155 160 157 158 157 163 162 177 183 165 180 184 195 196 200 205 197 206 196 189 196 188 194 199 178 198 176 180 199 183 228 206 212 211 193 169 180 196 165 163 190 192 168 157 167
192 123 179 228 222 201 185 177 182 185 198 204 203 197 194 180 178 166 166 168 168 167 167 167 170 170 166 169 174 176 165 153 165 228 172 169 169 166 169 162 157 155 150 156 158 157 164 176 183 179 189 198 198 191 199 195 192 202 204 193 187 188 181 193 203 173 186 181 199 192 187 209 257 229 195 161 151 170 196 178 212 186 188 156 174
2 325 161 190 182 163 168 192 201 195 202 209 209 206 196 180 179 174 175 175 169 166 165 168 171 172 172 170 170 167 143 115 161 224 173 172 173 165 162 158 154 152 155 152 153 152 156 181 190 193 195 204 203 194 195 192 196 200 205 197 186 191 197 197 191 168 188 201 193 196 191 193 223 218 190 190 159 170 189 182 222 162 236 160 165
13 13 360 306 161 180 192 193 201 207 213 214 208 208 209 180 170 181 183 179 169 164 163 167 172 170 169 167 166 159 144 160 192 199 174 170 173 165 159 154 152 151 152 151 158 163 173 177 191 192 190 197 198 201 196 195 199 200 206 203 195 199 200 204 188 189 187 180 194 195 188 175 204 190 195 185 176 183 174 188 185 239 155 240 181
10 2 4 357 284 198 191 197 206 214 215 217 213 213 211 191 187 186 182 178 171 159 160 165 167 164 160 157 158 156 161 182 193 175 175 165 165 159 156 156 155 160 159 165 169 168 174 174 188 189 190 194 198 196 201 204 204 203 201 212 194 203 206 200 198 193 184 190 201 194 187 174 207 187 171 185 182 186 175 202 196 205 141 190 200
5 4 3 351 352 274 201 198 220 212 214 217 218 213 207 203 195 183 178 177 169 161 166 158 157 153 151 148 145 152 175 184 168 174 161 161 158 163 159 161 168 160 163 169 165 166 174 185 186 194 194 195 201 194 196 200 207 204 200 203 201 204 212 199 202 207 196 208 185 199 193 176 209 170 185 194 185 178 182 203 174 188 163 191 211
4 5 1 1 0 8 1 344 280 242 216 216 222 218 214 205 199 183 181 172 171 167 163 155 146 130 141 133 125 109 135 186 172 171 165 163 166 164 166 162 163 154 166 165 162 161 180 182 178 195 195 197 208 201 191 197 203 203 205 189 196 199 201 198 204 200 203 207 193 198 181 180 196 174 192 197 180 181 193 205 166 189 160 190 210
20 11 9 359 7 17 13 3 7 355 279 241 227 223 219 213 199 186 189 173 171 161 149 145 129 128 113 114 121 155 197 199 170 170 172 166 167 167 162 162 160 160 160 167 148 172 172 174 179 191 187 187 199 184 192 205 201 210 210 197 197 192 196 200 203 205 197 202 199 201 201 180 186 188 180 202 174 193 211 196 162 190 153 195 188
26 16 9 14 16 18 16 6 3 359 1 346 313 273 277 223 37 286 158 139 162 161 151 137 129 123 138 151 159 185 200 184 173 170 172 164 166 162 164 162 157 163 159 157 160 170 177 173 181 193 173 188 176 183 184 192 171 205 211 202 200 198 195 198 190 203 186 184 192 199 211 175 196 189 173 207 179 192 217 166 185 178 178 170 193
24 18 18 21 21 16 16 10 360 5 3 352 355 344 259 237 204 177 141 165 202 172 131 125 118 115 116 101 129 215 209 173 168 169 166 162 163 158 160 158 164 164 157 167 167 173 182 172 182 189 175 182 186 179 178 176 167 181 185 179 205 187 191 193 204 213 176 168 182 167 212 190 192 201 185 204 187 193 213 187 183 191 183 163 185
27 23 18 20 19 18 18 12 7 4 360 349 348 351 346 293 135 139 146 167 187 170 142 146 137 135 130 149 170 166 224 164 164 165 160 160 156 150 165 166 185 157 168 170 170 172 185 174 181 181 192 171 189 186 179 192 176 175 157 173 190 184 185 182 202 191 182 169 184 172 167 181 195 175 204 209 198 202 212 225 179 207 202 162 185
26 26 23 20 18 18 15 14 11 5 357 351 350 350 16 117 111 139 171 168 149 148 155 153 143 143 151 152 154 137 137 135 156 158 160 150 152 173 175 175 165 161 169 172 169 170 173 187 167 196 179 179 170 204 180 178 216 167 185 168 197 195 176 173 211 192 194 184 197 165 177 188 190 188 185 213 214 204 209 227 198 206 244 168 173
26 24 22 21 23 17 15 17 12 5 2 356 357 358 358 353 158 164 177 170 155 153 151 149 143 142 143 125 114 111 116 131 154 163 161 160 163 177 180 166 165 159 173 167 164 159 172 171 146 190 121 113 80 48 32 12 354 258 168 184 197 212 200 176 187 194 167 197 204 191 199 68 56 48 50 43 33 14 232 215 223 229 228 232 202
29 26 24 26 24 21 21 21 17 11 1 0 360 2 355 349 346 342 170 162 161 140 141 143 140 132 128 125 116 103 100 112 125 145 158 158 167 171 169 160 161 158 165 153 154 155 160 150 163 149 157 88 52 51 9 350 6 5 338 196 176 216 204 214 209 206 191 220 207 204 89 72 52 47 41 34 24 6 16 27 340 275 238 227 230
33 29 29 30 29 26 25 25 20 15 10 3 1 353 346 339 353 1 17 153 158 144 138 141 134 131 130 127 127 125 122 125 116 122 126 142 157 157 152 154 154 153 148 145 149 150 149 151 144 145 98 68 56 24 355 7 3 7 355 333 168 194 208 222 205 221 224 219 223 228 134 105 124 96 76 52 351 357 10 16 10 28 34 13 276
34 33 30 29 31 31 29 27 21 18 14 8 359 352 346 324 7 30 18 14 46 80 110 127 140 131 119 127 125 127 125 121 115 112 107 97 85 86 104 123 127 132 136 145 153 153 145 121 98 87 77 70 64 19 356 9 6 359 1 342 297 202 191 225 220 217 213 219 213 213 202 152 192 171 173 157 159 185 316 356 9 360 350 350 125
35 35 34 35 38 38 36 31 30 23 20 13 2 359 338 342 35 42 50 40 48 63 66 59 60 82 106 107 109 116 101 95 91 88 88 86 89 90 85 80 70 61 80 125 137 121 105 102 98 94 84 75 68 11 356 6 8 353 353 327 260 203 219 212 239 232 237 219 197 184 202 189 147 114 220 202 182 170 177 169 295 312 279 273 295
45 43 42 43 43 43 38 32 22 13 16 15 15 2 341 351 20 46 53 55 61 59 66 66 71 74 87 94 92 80 73 63 67 79 81 82 83 77 66 62 72 75 74 69 64 75 85 87 84 88 79 66 45 3 350 357 4 349 344 325 276 220 222 233 193 231 249 300 312 237 198 194 171 179 219 232 248 227 161 186 208 233 250 222 214
43 43 44 45 47 46 42 33 24 16 7 17 19 4 6 26 32 45 49 59 66 75 70 71 70 61 67 78 76 83 75 68 61 65 68 68 66 67 65 47 40 50 64 69 67 61 70 81 80 80 83 65 45 5 4 360 2 349 342 294 270 81 211 221 214 191 282 236 201 221 258 258 215 91 31 4 330 296 271 261 248 242 244 254 248
37 40 40 42 43 41 38 31 23 26 24 21 15 360 16 26 34 45 56 61 64 62 66 66 64 59 60 63 69 71 71 65 56 54 67 68 57 47 55 56 64 60 49 53 86 111 109 108 102 95 91 81 52 21 10 9 6 2 338 288 219 207 230 205 183 187 208 194 204 218 225 239 65 64 15 26 28 2 331 292 275 261 261 255 253
46 44 46 41 37 34 25 23 26 28 30 26 15 13 22 30 37 35 36 39 55 58 55 52 55 51 54 58 60 67 68 67 64 63 62 67 74 66 56 49 67 66 71 51 26 69 101 107 103 95 92 84 57 21 14 13 9 5 350 288 203 218 195 207 207 196 238 204 51 31 5 318 73 58 22 25 17 1 303 275 266 271 267 267 264
53 47 43 37 34 34 34 29 27 30 32 27 16 20 24 33 35 36 38 35 35 35 39 44 47 44 44 47 53 57 62 62 67 72 72 75 72 69 65 50 66 75 74 74 66 44 56 73 84 94 96 93 69 35 22 16 12 7 354 340 293 234 182 228 189 211 253 96 58 43 31 52 62 48 27 34 19 4 290 280 274 275 276 272 272
55 47 41 40 37 33 34 35 31 28 21 27 30 27 30 35 32 32 39 39 36 34 32 37 40 41 39 38 45 54 59 52 47 52 52 59 59 70 87 90 82 71 75 75 69 67 66 65 55 46 31 79 79 51 32 20 12 14 6 344 333 317 200 219 310 169 200 122 93 59 51 55 58 45 38 33 25 7 328 302 315 295 282 274 294
53 55 51 41 36 37 33 26 27 28 23 25 35 40 41 36 31 30 33 33 34 35 32 35 39 42 51 54 53 57 59 58 55 51 48 50 54 60 70 80 76 79 74 82 102 78 72 63 49 43 40 46 68 61 33 28 17 11 10 354 358 2 13 8 340 332 333 176 116 100 68 53 52 43 41 33 25 17 355 335 324 307 296 318 9
48 50 54 57 49 38 37 36 25 26 27 26 29 39 43 44 41 38 32 26 26 38 46 44 41 43 44 50 52 56 56 53 55 56 54 57 54 52 52 66 70 66 72 69 71 85 91 110 94 78 69 54 34 62 62 34 27 20 16 5 10 26 8 359 348 354 333 336 337 93 88 68 60 50 43 27 29 14 354 322 304 297 333 348 328
49 44 46 55 55 52 39 30 34 32 29 28 31 43 48 48 53 55 51 42 38 37 43 52 58 55 53 51 51 58 70 64 52 43 49 69 75 74 73 86 105 110 118 114 140 150 142 134 133 116 108 101 64 32 72 60 40 35 32 27 26 42 15 340 340 329 330 339 349 55 64 42 34 23 11 9 352 344 329 291 287 297 314 325 326
31 36 35 46 56 56 58 50 26 29 33 34 36 45 48 48 52 52 56 59 58 58 51 49 54 59 59 54 47 47 51 61 76 78 64 61 75 84 83 100 132 147 152 163 171 173 168 155 146 124 110 102 110 92 58 76 58 46 38 51 40 36 354 342 342 337 328 332 340 349 34 14 360 1 356 343 335 327 301 274 281 291 294 311 298
49 40 30 31 44 49 52 48 51 44 39 35 37 41 40 48 51 50 49 45 45 54 56 54 54 54 58 60 61 55 45 44 50 64 70 50 52 76 88 86 120 164 147 147 139 158 169 151 138 121 112 113 128 109 98 99 111 113 96 77 55 43 358 8 336 281 300 310 315 30 348 343 349 335 319 316 316 305 277 278 282 282 283 285 281
72 67 55 44 44 44 44 47 43 48 54 55 50 38 34 38 34 38 44 43 41 43 50 54 52 55 58 62 62 62 62 57 52 46 64 85 83 100 104 108 148 146 152 159 162 158 154 130 129 124 123 121 114 127 123 142 153 164 172 161 124 31 260 250 279 289 317 1 15 325 327 307 296 292 288 292 283 274 274 271 266 266 269 271 274
93 85 78 77 71 60 54 49 40 34 35 36 49 55 45 32 30 33 36 42 47 46 42 48 58 55 46 48 52 73 69 52 71 83 73 50 53 76 94 132 132 106 89 74 73 78 77 74 85 98 101 107 124 119 119 132 165 170 193 201 203 209 222 221 240 303 315 304 289 275 268 273 279 272 273 268 262 265 257 261 268 266 266 265 259
60 91 118 82 66 64 60 56 57 48 38 32 33 36 39 37 37 37 39 36 32 40 54 47 41 46 60 61 44 13 43 65 33 42 51 44 37 42 41 32 27 33 64 87 93 74 84 91 83 91 112 132 129 87 59 39 29 12 2 349 189 213 223 235 234 230 236 246 245 232 261 262 262 268 267 273 276 279 273 250 234 235 242 254 256
27 21 22 38 42 48 51 48 47 49 51 47 40 43 46 37 35 35 34 37 39 28 30 36 46 51 37 36 61 351 336 71 63 47 38 29 30 31 51 42 22 12 3 16 25 44 38 31 24 41 35 89 106 66 41 26 18 6 355 352 2 0 5 356 2 358 340 322 312 287 255 246 245 244 245 235 233 235 240 241 257 270 237 233 250
66 45 25 25 24 26 24 28 34 27 33 29 32 34 35 47 47 54 42 38 37 36 36 35 30 26 28 27 34 38 37 33 72 92 68 48 36 26 34 66 49 28 26 11 8 34 25 13 2 27 12 12 39 52 37 27 27 14 345 343 353 358 351 334 18 3 326 315 306 288 298 305 312 319 321 324 333 334 331 328 326 314 306 314 316
43 45 44 46 32 22 19 11 14 6 10 19 15 27 25 24 30 30 31 33 44 59 57 55 45 36 16 11 27 26 27 37 27 68 114 90 30 39 37 41 77 81 68 49 40 42 14 356 356 39 42 20 36 46 56 31 22 4 348 312 303 309 307 290 302 308 291 290 277 278 291 321 337 338 345 342 336 335 329 322 317 326 312 299 303
42 27 50 44 41 33 8 11 4 357 360 5 360 2 10 17 18 13 21 8 12 9 43 52 54 50 34 4 34 30 20 19 29 15 31 136 138 106 90 101 110 131 120 119 114 107 69 31 13 18 81 88 89 67 28 13 356 341 299 257 250 251 256 257 265 290 262 241 277 347 356 349 340 340 334 327 327 316 315 316 309 309 310 309 303